Location: Unspecified
(0.0000°N, 0.0000°E)
Time: 00:25:27
(UTC+01:00)

ASC 2 Rocket - Visible Passes

Search period start: 26 February 2018 00:00
Search period end: 08 March 2018 00:00
Orbit: 555 x 2345 km, 24.0° (Epoch: 24 February)

Date Brightness Start Highest point End Pass type
(mag) Time Alt. Az. Time Alt. Az. Time Alt. Az.
26 Feb 6.4 21:07:45 10° NW 21:18:38 27° N 21:20:31 26° NNE visible
26 Feb 7.3 23:13:37 10° NW 23:15:20 15° NW 23:15:20 15° NW visible
27 Feb 6.8 19:58:53 10° NW 20:09:49 25° N 20:18:25 13° NE visible
27 Feb 6.5 22:05:05 10° NW 22:13:15 31° NNW 22:13:15 31° NNW visible
28 Feb 6.3 20:56:34 10° NW 21:08:31 32° NNE 21:11:09 30° NNE visible
28 Feb 7.0 23:02:10 10° NW 23:05:59 21° NW 23:05:59 21° NW visible
01 Mar 6.7 19:48:09 10° NW 19:59:41 28° N 20:09:06 13° ENE visible
01 Mar 6.1 21:53:40 10° NW 22:03:56 41° N 22:03:56 41° N visible
02 Mar 6.1 20:45:21 10° NW 20:58:13 38° NNE 21:01:54 33° NE visible
02 Mar 6.7 22:50:49 10° WNW 22:56:45 30° NW 22:56:45 30° NW visible
03 Mar 6.6 19:37:20 10° NW 19:49:24 32° NNE 19:59:54 12° ENE visible
03 Mar 5.8 21:42:20 10° NW 21:54:45 54° N 21:54:45 54° N visible
03 Mar 7.4 23:48:27 10° WNW 23:49:35 13° WNW 23:49:35 13° WNW visible
04 Mar 6.0 20:34:11 10° NW 20:47:43 45° NNE 20:52:47 34° ENE visible
04 Mar 6.4 22:39:34 10° WNW 22:47:38 41° WNW 22:47:38 41° WNW visible
05 Mar 6.5 19:26:28 10° NW 19:38:57 37° NNE 19:50:52 11° E visible
05 Mar 5.5 21:31:06 10° NW 21:45:31 67° NNE 21:45:43 67° NNE visible
05 Mar 7.2 23:37:32 10° WNW 23:40:33 19° WNW 23:40:33 19° WNW visible
06 Mar 6.0 20:23:07 10° NW 20:37:01 54° NNE 20:43:49 32° E visible
06 Mar 6.1 22:28:29 10° WNW 22:38:40 53° WNW 22:38:40 53° WNW visible
07 Mar 6.4 19:15:40 10° NW 19:28:20 43° NNE 19:41:19 10° E visible
07 Mar 5.5 21:20:01 10° WNW 21:34:40 80° NNE 21:36:48 69° E visible
07 Mar 7.0 23:26:47 10° W 23:31:39 24° W 23:31:39 24° W visible
